| time (UTC) | temp F | wind direction | speed MPH | gust MPH | rain 1hr in | rain 24hr in | rain mn in | humidity % | barometer mb |
| 20260903085516 | 69 | 270 | 6.0 | 15.0 | 0.00 | 0.06 | 0.00 | 77 | 1017.5 |
| 20260903084516 | 70 | 248 | 5.0 | 14.0 | 0.00 | 0.06 | 0.00 | 77 | 1017.5 |
| 20260903083516 | 67 | 248 | 5.0 | 11.0 | 0.00 | 0.06 | 0.00 | 81 | 1017.4 |
| 20260903082516 | 67 | 270 | 6.0 | 11.0 | 0.00 | 0.06 | 0.00 | 83 | 1017.3 |
| 20260903081516 | 67 | 248 | 5.0 | 15.0 | 0.00 | 0.06 | 0.00 | 83 | 1017.2 |
| 20260903080516 | 68 | 270 | 4.0 | 9.0 | 0.00 | 0.06 | 0.00 | 83 | 1017.3 |
| 20260903075516 | 68 | 248 | 5.0 | 11.0 | 0.00 | 0.07 | 0.00 | 81 | 1017.1 |
| 20260903074536 | 68 | 248 | 4.0 | 11.0 | 0.00 | 0.07 | 0.00 | 82 | 1017.2 |
| 20260903073516 | 66 | 248 | 6.0 | 16.0 | 0.00 | 0.07 | 0.00 | 85 | 1017.0 |
| 20260903072516 | 65 | 248 | 5.0 | 15.0 | 0.00 | 0.07 | 0.00 | 87 | 1016.7 |
| 20260903071516 | 64 | 225 | 6.0 | 23.0 | 0.00 | 0.07 | 0.00 | 87 | 1016.5 |
| 20260903070516 | 64 | 203 | 6.0 | 16.0 | 0.00 | 0.07 | 0.00 | 87 | 1016.3 |
| 20260903065515 | 64 | 225 | 6.0 | 15.0 | 0.00 | 0.08 | 0.00 | 88 | 1016.3 |
| 20260903064516 | 64 | 225 | 5.0 | 12.0 | 0.00 | 0.08 | 0.00 | 88 | 1016.2 |
| 20260903063556 | 64 | 248 | 5.0 | 13.0 | 0.00 | 0.08 | 0.00 | 88 | 1016.2 |
| 20260903062516 | 64 | 225 | 5.0 | 16.0 | 0.00 | 0.08 | 0.00 | 88 | 1016.1 |
| 20260903061515 | 64 | 248 | 5.0 | 10.0 | 0.00 | 0.08 | 0.00 | 89 | 1016.0 |
| 20260903060515 | 63 | 248 | 5.0 | 11.0 | 0.00 | 0.08 | 0.00 | 89 | 1016.1 |
| 20260903055515 | 63 | 225 | 6.0 | 15.0 | 0.00 | 0.08 | 0.00 | 89 | 1015.8 |
| 20260903054515 | 63 | 225 | 5.0 | 15.0 | 0.00 | 0.08 | 0.00 | 89 | 1015.9 |
| 20260903053515 | 63 | 225 | 5.0 | 13.0 | 0.00 | 0.08 | 0.00 | 90 | 1015.8 |
| 20260903052515 | 63 | 225 | 6.0 | 12.0 | 0.00 | 0.08 | 0.00 | 90 | 1015.9 |
| 20260903051516 | 62 | 225 | 4.0 | 10.0 | 0.00 | 0.08 | 0.00 | 91 | 1016.0 |
| 20260903050535 | 62 | 225 | 5.0 | 15.0 | 0.00 | 0.08 | 0.00 | 91 | 1015.8 |
| 20260903045516 | 62 | 203 | 4.0 | 10.0 | 0.00 | 0.08 | 0.00 | 91 | 1015.8 |
| 20260903044536 | 62 | 225 | 4.0 | 9.0 | 0.00 | 0.08 | 0.00 | 90 | 1016.0 |
| 20260903043536 | 62 | 225 | 4.0 | 7.0 | 0.00 | 0.08 | 0.00 | 90 | 1015.8 |
| 20260903042515 | 63 | 225 | 6.0 | 11.0 | 0.00 | 0.08 | 0.00 | 90 | 1015.6 |
| 20260903041535 | 63 | 225 | 6.0 | 13.0 | 0.00 | 0.08 | 0.00 | 90 | 1015.7 |
| 20260903040515 | 63 | 225 | 5.0 | 12.0 | 0.00 | 0.08 | 0.00 | 90 | 1015.7 |
| 20260903035515 | 62 | 203 | 6.0 | 11.0 | 0.00 | 0.08 | 0.00 | 90 | 1015.8 |
| 20260903034555 | 62 | 225 | 5.0 | 12.0 | 0.00 | 0.08 | 0.00 | 91 | 1015.8 |
| 20260903033515 | 62 | 225 | 5.0 | 11.0 | 0.00 | 0.08 | 0.00 | 90 | 1015.7 |
| 20260903032515 | 62 | 225 | 6.0 | 20.0 | 0.00 | 0.08 | 0.00 | 91 | 1015.8 |
| 20260903031515 | 62 | 225 | 5.0 | 10.0 | 0.00 | 0.08 | 0.00 | 92 | 1015.7 |
| 20260903030515 | 63 | 225 | 5.0 | 13.0 | 0.00 | 0.08 | 0.00 | 91 | 1015.6 |
| 20260903025537 | 63 | 225 | 7.0 | 16.0 | 0.00 | 0.08 | 0.00 | 91 | 1015.8 |
| 20260903024517 | 63 | 225 | 6.0 | 12.0 | 0.00 | 0.08 | 0.00 | 91 | 1015.7 |
| 20260903023557 | 63 | 225 | 5.0 | 13.0 | 0.00 | 0.08 | 0.00 | 91 | 1015.9 |
| 20260903022517 | 63 | 225 | 7.0 | 19.0 | 0.00 | 0.08 | 0.00 | 92 | 1015.7 |
| 20260903021517 | 63 | 225 | 4.0 | 10.0 | 0.00 | 0.08 | 0.00 | 93 | 1015.6 |
| 20260903020517 | 63 | 225 | 4.0 | 11.0 | 0.00 | 0.08 | 0.00 | 94 | 1015.7 |
| 20260903015517 | 63 | 203 | 5.0 | 12.0 | 0.00 | 0.08 | 0.00 | 94 | 1015.8 |
| 20260903014517 | 64 | 225 | 5.0 | 10.0 | 0.00 | 0.08 | 0.00 | 94 | 1015.8 |
| 20260903013517 | 63 | 203 | 6.0 | 12.0 | 0.00 | 0.08 | 0.00 | 95 | 1015.4 |
| 20260903012517 | 63 | 225 | 5.0 | 11.0 | 0.00 | 0.08 | 0.00 | 95 | 1015.5 |
| 20260903011517 | 64 | 225 | 5.0 | 13.0 | 0.00 | 0.08 | 0.00 | 94 | 1015.9 |
| 20260903010517 | 64 | 203 | 8.0 | 15.0 | 0.00 | 0.08 | 0.00 | 94 | 1015.8 |
| 20260903005517 | 64 | 203 | 4.0 | 10.0 | 0.00 | 0.08 | 0.00 | 94 | 1015.9 |
| 20260903004517 | 64 | 203 | 6.0 | 12.0 | 0.00 | 0.08 | 0.00 | 93 | 1016.2 |
| 20260903003517 | 64 | 203 | 6.0 | 13.0 | 0.00 | 0.08 | 0.00 | 93 | 1016.2 |
| 20260903002537 | 64 | 203 | 6.0 | 14.0 | 0.00 | 0.08 | 0.00 | 93 | 1016.1 |
| 20260903001517 | 64 | 203 | 6.0 | 13.0 | 0.00 | 0.08 | 0.00 | 93 | 1016.2 |
| 20260903000517 | 64 | 203 | 6.0 | 11.0 | 0.00 | 0.08 | 0.00 | 93 | 1016.4 |
| 20260902235517 | 64 | 203 | 9.0 | 15.0 | 0.00 | 0.08 | 0.00 | 93 | 1016.3 |
| 20260902234517 | 64 | 203 | 8.0 | 17.0 | 0.00 | 0.08 | 0.00 | 94 | 1016.3 |
| 20260902233517 | 64 | 203 | 7.0 | 14.0 | 0.00 | 0.08 | 0.00 | 94 | 1016.2 |
| 20260902232517 | 64 | 203 | 6.0 | 15.0 | 0.00 | 0.08 | 0.00 | 94 | 1016.4 |
| 20260902231517 | 64 | 203 | 7.0 | 16.0 | 0.00 | 0.08 | 0.00 | 94 | 1016.5 |
| 20260902230516 | 64 | 203 | 5.0 | 11.0 | 0.00 | 0.08 | 0.00 | 93 | 1016.4 |
| 20260902225517 | 64 | 203 | 7.0 | 12.0 | 0.00 | 0.08 | 0.08 | 93 | 1016.5 |
| 20260902224517 | 64 | 225 | 6.0 | 12.0 | 0.00 | 0.08 | 0.08 | 93 | 1016.7 |
| 20260902223517 | 64 | 225 | 4.0 | 10.0 | 0.00 | 0.08 | 0.08 | 93 | 1016.8 |
| 20260902222517 | 65 | 203 | 7.0 | 13.0 | 0.00 | 0.08 | 0.08 | 93 | 1016.7 |
| 20260902221517 | 65 | 203 | 6.0 | 13.0 | 0.00 | 0.08 | 0.08 | 93 | 1016.7 |
| 20260902220517 | 65 | 203 | 7.0 | 12.0 | 0.00 | 0.08 | 0.08 | 93 | 1016.6 |
| 20260902215517 | 65 | 203 | 7.0 | 14.0 | 0.00 | 0.08 | 0.08 | 94 | 1016.4 |
| 20260902214517 | 65 | 203 | 7.0 | 11.0 | 0.00 | 0.08 | 0.08 | 93 | 1016.3 |
| 20260902213517 | 65 | 203 | 6.0 | 11.0 | 0.00 | 0.08 | 0.08 | 93 | 1016.5 |
| 20260902212517 | 65 | 225 | 4.0 | 8.0 | 0.00 | 0.08 | 0.08 | 91 | 1016.5 |
| 20260902211517 | 65 | 248 | 3.0 | 8.0 | 0.00 | 0.08 | 0.08 | 90 | 1016.5 |
| 20260902210517 | 65 | 248 | 3.0 | 9.0 | 0.00 | 0.08 | 0.08 | 90 | 1016.7 |
| 20260902205516 | 65 | 248 | 4.0 | 8.0 | 0.00 | 0.08 | 0.08 | 92 | 1016.3 |
| 20260902204517 | 65 | 248 | 4.0 | 9.0 | 0.00 | 0.08 | 0.08 | 93 | 1016.5 |
| 20260902203517 | 65 | 225 | 7.0 | 16.0 | 0.00 | 0.08 | 0.08 | 93 | 1016.3 |
| 20260902202517 | 65 | 203 | 6.0 | 14.0 | 0.00 | 0.08 | 0.08 | 94 | 1016.1 |
| 20260902201516 | 65 | 203 | 6.0 | 15.0 | 0.00 | 0.08 | 0.08 | 94 | 1016.2 |
| 20260902200516 | 65 | 203 | 8.0 | 14.0 | 0.00 | 0.08 | 0.08 | 94 | 1016.1 |
| 20260902195517 | 65 | 203 | 8.0 | 14.0 | 0.00 | 0.08 | 0.08 | 94 | 1015.9 |
| 20260902194516 | 65 | 203 | 8.0 | 15.0 | 0.00 | 0.08 | 0.08 | 94 | 1016.0 |
| 20260902193517 | 65 | 203 | 5.0 | 9.0 | 0.00 | 0.08 | 0.08 | 94 | 1015.8 |
| 20260902192516 | 66 | 203 | 6.0 | 10.0 | 0.00 | 0.08 | 0.08 | 94 | 1015.9 |
| 20260902191516 | 66 | 203 | 8.0 | 13.0 | 0.00 | 0.08 | 0.08 | 93 | 1015.8 |
| 20260902190536 | 66 | 225 | 8.0 | 15.0 | 0.00 | 0.08 | 0.08 | 94 | 1015.8 |
| 20260902185516 | 66 | 203 | 5.0 | 10.0 | 0.00 | 0.08 | 0.08 | 94 | 1015.9 |
| 20260902184516 | 66 | 203 | 4.0 | 7.0 | 0.00 | 0.08 | 0.08 | 95 | 1015.7 |
| 20260902183516 | 66 | 225 | 4.0 | 8.0 | 0.00 | 0.08 | 0.08 | 95 | 1015.7 |
| 20260902182616 | 66 | 225 | 7.0 | 13.0 | 0.00 | 0.08 | 0.08 | 95 | 1015.7 |
| 20260902181516 | 66 | 203 | 7.0 | 13.0 | 0.00 | 0.08 | 0.08 | 96 | 1015.6 |
| 20260902180516 | 66 | 203 | 7.0 | 13.0 | 0.00 | 0.08 | 0.08 | 96 | 1015.6 |
| 20260902175516 | 65 | 203 | 5.0 | 11.0 | 0.00 | 0.08 | 0.08 | 96 | 1015.5 |
| 20260902174536 | 65 | 203 | 6.0 | 14.0 | 0.00 | 0.08 | 0.08 | 97 | 1015.6 |
| 20260902173516 | 65 | 203 | 8.0 | 14.0 | 0.00 | 0.08 | 0.08 | 97 | 1015.5 |
| 20260902172516 | 65 | 203 | 6.0 | 12.0 | 0.00 | 0.08 | 0.08 | 97 | 1015.8 |
| 20260902171516 | 65 | 225 | 5.0 | 10.0 | 0.00 | 0.08 | 0.08 | 98 | 1015.8 |
| 20260902170516 | 65 | 203 | 6.0 | 15.0 | 0.00 | 0.08 | 0.08 | 98 | 1015.8 |
| 20260902165516 | 65 | 203 | 6.0 | 13.0 | 0.00 | 0.08 | 0.08 | 98 | 1015.9 |
| 20260902164516 | 64 | 180 | 3.0 | 9.0 | 0.00 | 0.08 | 0.08 | 98 | 1015.9 |
| 20260902163516 | 64 | 225 | 5.0 | 12.0 | 0.00 | 0.08 | 0.08 | 98 | 1015.9 |
| 20260902162516 | 64 | 203 | 4.0 | 8.0 | 0.00 | 0.08 | 0.08 | 98 | 1015.9 |
| 20260902161516 | 64 | 203 | 5.0 | 10.0 | 0.00 | 0.08 | 0.08 | 98 | 1016.0 |
| 20260902160516 | 64 | 203 | 6.0 | 17.0 | 0.00 | 0.08 | 0.08 | 98 | 1016.0 |
| 20260902155516 | 64 | 135 | 3.0 | 7.0 | 0.01 | 0.08 | 0.08 | 98 | 1016.0 |
| 20260902154516 | 64 | 203 | 6.0 | 12.0 | 0.01 | 0.08 | 0.08 | 98 | 1016.0 |
| 20260902153516 | 64 | 203 | 5.0 | 11.0 | 0.01 | 0.08 | 0.08 | 98 | 1016.1 |
| 20260902152516 | 64 | 180 | 4.0 | 12.0 | 0.01 | 0.08 | 0.08 | 98 | 1016.2 |
| 20260902151516 | 64 | 158 | 4.0 | 16.0 | 0.01 | 0.08 | 0.08 | 97 | 1016.2 |
| 20260902150516 | 64 | 180 | 5.0 | 14.0 | 0.01 | 0.08 | 0.08 | 97 | 1016.3 |
| 20260902145516 | 64 | 180 | 5.0 | 13.0 | 0.00 | 0.07 | 0.07 | 97 | 1016.4 |
| 20260902144536 | 64 | 180 | 6.0 | 15.0 | 0.01 | 0.07 | 0.07 | 96 | 1016.5 |
| 20260902143536 | 64 | 203 | 7.0 | 20.0 | 0.01 | 0.07 | 0.07 | 96 | 1016.7 |
| 20260902142516 | 64 | 180 | 5.0 | 13.0 | 0.01 | 0.07 | 0.07 | 96 | 1016.7 |
| 20260902141516 | 63 | 203 | 8.0 | 16.0 | 0.02 | 0.07 | 0.07 | 96 | 1016.8 |
| 20260902140516 | 63 | 203 | 7.0 | 17.0 | 0.04 | 0.07 | 0.07 | 96 | 1016.9 |
| 20260902135516 | 63 | 203 | 7.0 | 14.0 | 0.05 | 0.07 | 0.07 | 96 | 1017.1 |
| 20260902134516 | 63 | 203 | 7.0 | 19.0 | 0.04 | 0.06 | 0.06 | 96 | 1017.3 |
| 20260902133516 | 63 | 203 | 5.0 | 11.0 | 0.05 | 0.06 | 0.06 | 97 | 1017.5 |
| 20260902132516 | 63 | 180 | 3.0 | 11.0 | 0.05 | 0.06 | 0.06 | 96 | 1017.6 |
| 20260902131515 | 62 | 158 | 3.0 | 7.0 | 0.04 | 0.06 | 0.06 | 95 | 1017.7 |
| 20260902130516 | 62 | 158 | 3.0 | 7.0 | 0.02 | 0.03 | 0.03 | 94 | 1017.7 |
| 20260902125516 | 62 | 158 | 5.0 | 14.0 | 0.01 | 0.02 | 0.02 | 93 | 1017.8 |
| 20260902124515 | 63 | 158 | 4.0 | 9.0 | 0.01 | 0.02 | 0.02 | 91 | 1018.1 |
| 20260902123516 | 64 | 180 | 4.0 | 12.0 | 0.00 | 0.02 | 0.02 | 85 | 1018.1 |
| 20260902122515 | 64 | 203 | 9.0 | 21.0 | 0.00 | 0.02 | 0.02 | 82 | 1018.1 |
| 20260902121536 | 65 | 180 | 4.0 | 10.0 | 0.00 | 0.02 | 0.02 | 82 | 1018.3 |
| 20260902120516 | 66 | 158 | 4.0 | 11.0 | 0.00 | 0.02 | 0.02 | 81 | 1018.1 |
| 20260902115535 | 67 | 158 | 5.0 | 13.0 | 0.00 | 0.02 | 0.02 | 79 | 1018.3 |
| 20260902114515 | 65 | 180 | 5.0 | 16.0 | 0.00 | 0.02 | 0.02 | 81 | 1018.6 |
| 20260902113516 | 65 | 203 | 7.0 | 17.0 | 0.00 | 0.02 | 0.02 | 82 | 1018.8 |
| 20260902112516 | 65 | 180 | 5.0 | 14.0 | 0.00 | 0.02 | 0.02 | 83 | 1018.9 |
| 20260902111515 | 65 | 203 | 8.0 | 16.0 | 0.00 | 0.02 | 0.02 | 84 | 1019.1 |
| 20260902110515 | 65 | 203 | 6.0 | 13.0 | 0.00 | 0.02 | 0.02 | 86 | 1019.3 |
| 20260902105515 | 65 | 203 | 7.0 | 19.0 | 0.00 | 0.02 | 0.02 | 82 | 1019.4 |
| 20260902104515 | 66 | 203 | 8.0 | 16.0 | 0.00 | 0.02 | 0.02 | 82 | 1019.6 |
| 20260902103515 | 65 | 203 | 7.0 | 16.0 | 0.00 | 0.02 | 0.02 | 86 | 1019.7 |
| 20260902102515 | 64 | 203 | 8.0 | 16.0 | 0.00 | 0.02 | 0.02 | 86 | 1019.8 |
| 20260902101515 | 64 | 203 | 9.0 | 15.0 | 0.00 | 0.02 | 0.02 | 87 | 1019.9 |
| 20260902100515 | 64 | 203 | 8.0 | 15.0 | 0.00 | 0.02 | 0.02 | 87 | 1020.0 |
| 20260902095515 | 63 | 203 | 7.0 | 15.0 | 0.00 | 0.02 | 0.02 | 89 | 1020.0 |
| 20260902094515 | 63 | 203 | 8.0 | 20.0 | 0.00 | 0.02 | 0.02 | 90 | 1020.0 |
| 20260902093515 | 63 | 203 | 7.0 | 15.0 | 0.00 | 0.02 | 0.02 | 91 | 1020.1 |
| 20260902092515 | 63 | 203 | 5.0 | 9.0 | 0.00 | 0.02 | 0.02 | 93 | 1020.1 |
| 20260902091517 | 62 | 203 | 5.0 | 12.0 | 0.00 | 0.02 | 0.02 | 93 | 1020.1 |
| 20260902090517 | 62 | 203 | 5.0 | 11.0 | 0.00 | 0.02 | 0.02 | 93 | 1020.1 |